Regional Weather Roundup
Issued by NWS Portland, ME

Home | Current Version | Previous Version | Text Only | Print | Product List | Glossary On
Versions: 1 2 3 4 5 6 7 8 9 10 11 12 13 14 15 16 17 18 19 20 21 22 23 24 25 26 27 28 29 30 31 32 33 34 35 36 37 38 39 40 41 42 43 44 45 46 47 48 49 50
000
ASUS41 KGYX 182010
RWRGYX
WEATHER ROUNDUP FOR MAINE AND NEW HAMPSHIRE
NATIONAL WEATHER SERVICE GRAY ME
400 PM EDT THU SEP 18 2014

MEZ002-005-006-010-012-015-018-020-021-024-026-027-029-182100-
MAINE

CITY           SKY/WX    TMP DP  RH WIND       PRES   REMARKS
PORTLAND       PTSUNNY   66  44  45 N13       29.96R
SANFORD        SUNNY     70  43  37 W13       29.97R
BAR HARBOR     PTSUNNY   64  45  48 W10G16    29.94S
WISCASSET      SUNNY     68  46  45 VRB7      29.97R
ROCKLAND       MOSUNNY   66  46  48 NW9       29.93S
FRYEBURG       MOSUNNY   64  43  46 NW8G18    29.99R
LEWISTONAUBURN SUNNY     64  45  48 NW13G21   29.97S
AUGUSTA        MOSUNNY   64  41  42 NW10      29.97R
WATERVILLE     MOSUNNY   63  39  42 NW9G21    29.93R
BANGOR         PTSUNNY   65  39  38 N16       29.96R
GREENVILLE       N/A     51  33  50 NW10G18   29.97R
MILLINOCKET    PTSUNNY   59  37  44 NW14      29.99R
HOULTON        MOSUNNY   54  36  50 NW8       29.97R
PRESQUE ISLE   CLOUDY    52  28  40 NW14      29.98R
FRENCHVILLE    PTSUNNY   45  26  47 NW14G21   29.98R
CARIBOU        CLOUDY    50  28  42 NW14G22   29.98R
$$

NHZ002-005-008-009-011-012-014-182100-
NEW HAMPSHIRE

CITY           SKY/WX    TMP DP  RH WIND       PRES   REMARKS
PORTSMOUTH     MOSUNNY   71  47  43 W12       29.95R
ROCHESTER      PTSUNNY   66  47  50 N8        29.96R
NASHUA         SUNNY     71  45  39 NW8       29.97R
MANCHESTER     MOSUNNY   71  45  39 N12       29.95S
CONCORD        CLOUDY    68  48  48 NW13      29.97R
LACONIA        PTSUNNY   64  45  48 N12       29.98R
PLYMOUTH       PTSUNNY   61  51  69 W7        30.01R
BERLIN         PTSUNNY   54  39  57 VRB7      30.04R
WHITEFIELD     PTSUNNY   54  41  61 NW7       30.05R
JAFFREY        PTSUNNY   65  47  52 VRB6      30.00R
LEBANON        PTSUNNY   63  45  51 NW8       30.01R
MT WASHINGTON  FOG       30  30 100 NW48G60     N/A  VSB 1/16WCI  12
$$

VTZ005-007-008-182100-
VERMONT

CITY           SKY/WX    TMP DP  RH WIND       PRES   REMARKS
ST JOHNSBURY     N/A     54  41  61 MISG      30.05R
MONTPELIER     CLOUDY    51  41  68 NW9       30.10R
BURLINGTON     CLOUDY    53  39  59 N5        30.11R
$$

MAZ007-012-024-CTZ003-RIZ002-NYZ038-NYZ072-182100-
SOUTHERN NEW ENGLAND AND NY

CITY           SKY/WX    TMP DP  RH WIND       PRES   REMARKS
BOSTON         PTSUNNY   71  48  43 SE7       29.95S
WORCESTER      MOSUNNY   67  48  50 W8        29.99R
NANTUCKET      SUNNY     71  46  40 NW10      29.96R
PROVIDENCE     MOSUNNY   75  46  35 N14       29.96R
HARTFORD       MOSUNNY   76  45  33 W10       29.97R
ALBANY         LGT RAIN  66  53  63 N8        30.01R
NEW YORK CITY  PTSUNNY   73  47  39 N7        29.98S
$$

ANZ081-ANZ082-ANZ150-NHZ014-MEZ023>029-182100-
COASTAL MARINE OBSERVATIONS

STATION/POSITION TIME  TEMP    WIND        PRES    WAVE
                       AIR SEA DIR/SP/G            HT/PER
                 (UTC) (F)     (DEG/KT/KT) (MB)    (FT/S)
MOUNT DESERT ROC 2000   58                   N/A
MATINICUS ROCK   2000          310/  4/  5 1013.5R
PORTLAND WX BUOY 1950   61 60  160/  4/  6 1014.3R   4/13
WELLS            1900   70 60  280/  8/ 15 1013.1S
ISLE OF SHOALS   2000   67     340/ 12/ 14 1013.9R
JEFFREYS LEDGE   1921      63                N/A     3/13
CASHES LEDGE BUO 1950   63 64              1013.7R   3/12
$$

.............KEY..............
   WCI - WIND CHILL
   TC  - TEMPERATURE IN CELSIUS
   VSB - VISIBILITY IN MILES
   HX  - HEAT INDEX
   FAIR- INDICATES FEW OR NO CLOUDS BELOW 12,000 FT, WITH NO
         SIGNIFICANT WEATHER AND/OR OBSTRUCTIONS TO VISIBILITY.





USA.gov is the U.S. government's official web portal to all federal, state and local government web resources and services.